This is the latest recevied weather packets stored in our database for station/object N9WHM. If no packets are shown the sender has not sent any weather packets the latest 10 day(s).
| Time | Temp. | Humidity | Pressure | Rain* | Wind** | Luminosity | Snow |
|---|---|---|---|---|---|---|---|
| 1777847732 | 23.89° C | 27% | 1008.3 hPa | 0 mm | - | 327 W/m² | - |
| 1777847427 | 23.89° C | 27% | 1008.4 hPa | 0 mm | - | 346 W/m² | - |
| 1777847125 | 23.89° C | 28% | 1008.4 hPa | 0 mm | - | 369 W/m² | - |
| 1777846823 | 23.89° C | 29% | 1008.5 hPa | 0 mm | - | 356 W/m² | - |
| 1777846521 | 23.89° C | 28% | 1008.5 hPa | 0 mm | - | 371 W/m² | - |
| 1777846219 | 23.89° C | 28% | 1008.7 hPa | 0 mm | - | 424 W/m² | - |
| 1777845914 | 23.89° C | 28% | 1008.8 hPa | 0 mm | - | 353 W/m² | - |
| 1777845611 | 23.89° C | 26% | 1008.7 hPa | 0 mm | - | 437 W/m² | - |
| 1777845308 | 23.89° C | 28% | 1008.8 hPa | 0 mm | - | 459 W/m² | - |
| 1777845005 | 23.89° C | 29% | 1008.7 hPa | 0 mm | - | 470 W/m² | - |
| 1777844704 | 23.89° C | 29% | 1008.8 hPa | 0 mm | - | 486 W/m² | - |
| 1777844400 | 23.89° C | 28% | 1008.7 hPa | 0 mm | - | 499 W/m² | - |
| 1777844099 | 23.89° C | 27% | 1008.9 hPa | 0 mm | - | 519 W/m² | - |
| 1777843794 | 23.89° C | 26% | 1008.7 hPa | 0 mm | - | 533 W/m² | - |
| 1777843492 | 23.33° C | 28% | 1008.9 hPa | 0 mm | - | 544 W/m² | - |
| 1777843189 | 23.89° C | 29% | 1008.9 hPa | 0 mm | - | 559 W/m² | - |
| 1777842887 | 23.89° C | 29% | 1008.8 hPa | 0 mm | - | 585 W/m² | - |
| 1777842582 | 23.89° C | 28% | 1008.9 hPa | 0 mm | - | 350 W/m² | - |
| 1777842279 | 23.89° C | 28% | 1009 hPa | 0 mm | - | 641 W/m² | - |
| 1777841974 | 23.89° C | 28% | 1009 hPa | 0 mm | - | 656 W/m² | - |
| 1777841672 | 23.89° C | 28% | 1009 hPa | 0 mm | - | 308 W/m² | - |
| 1777841368 | 23.89° C | 27% | 1009.5 hPa | 0 mm | - | 714 W/m² | - |
| 1777841065 | 23.33° C | 30% | 1009.5 hPa | 0 mm | - | 713 W/m² | - |
| 1777840762 | 23.33° C | 29% | 1009.5 hPa | 0 mm | - | 312 W/m² | - |
| 1777840460 | 23.33° C | 29% | 1009.2 hPa | 0 mm | - | 621 W/m² | - |
* Rain latest hour (hover to see other rain measurements)
** Current wind speed in m/s (hover to see current wind gust speed)